User: anonymous   Login
Location: Shenandoah County Park
(38.9356°N, 78.4524°W)
Time: 05:18:06
(UTC-05:00)
Language:

Envisat - Orbit

View from above orbital plane
View from above orbital plane
View from above satellite
View from above satellite

Ground track
Ground track

The orbit data is extracted from the following two-line orbital elements,

1 27386U 02009A   23332.86569299  .00000329  00000-0  12148-3 0  9997
2 27386  98.2549 296.2976 0001315  84.6784 328.2495 14.38455609139565
Epoch (UTC): 28 November 2023 20:46:35
Eccentricity: 0.0001315
inclination: 98.2549°
perigee height: 762 km
apogee height: 764 km
right ascension of ascending node: 296.2976°
argument of perigee: 84.6784°
revolutions per day: 14.38455609
mean anomaly at epoch: 328.2495°
orbit number at epoch: 13956

The dashed part of the orbit path shows where the satellite is in the earth's shadow,  

DLR